This demonstration page uses our WeatherBlox Daily Observations layout. Learn more.

Left ArrowRight Arrow

41.12389, -100.76542

Hourly Observations for March 18, 2021

Temp ( °F °C ) Dew Point ( °F °C ) Humidity (%) Winds ( mph kmh ) Pressure ( in mb ) Visibility ( mi km ) Precip ( " mm )
12:53 am 00:53 Cloudy 36 2.2 29 -1.7 76 76 N 9 15 30.23 1024 10 16 0.00 0.00
1:29 am 01:29 Cloudy 36 2.2 29 -1.7 76 76 NNW 8 13 30.28 1025 10 16 0.00 0.00
1:53 am 01:53 Cloudy 36 2.2 29 -1.7 76 76 N 8 13 30.24 1024 10 16 0.00 0.00
2:53 am 02:53 Cloudy 35 1.7 29 -1.7 78 78 NNW 7 11 30.26 1025 10 16 0.00 0.00
3:10 am 03:10 Cloudy 35 1.7 29 -1.7 78 78 NNW 8 13 30.32 1027 10 16 0.00 0.00
3:53 am 03:53 Cloudy 35 1.7 30 -1.1 82 82 NNW 7 11 30.27 1025 10 16 0.00 0.00
4:53 am 04:53 Cloudy 35 1.7 30 -1.1 82 82 NW 7 11 30.28 1025 10 16 0.00 0.00
5:17 am 05:17 Cloudy 36 2.2 30 -1.1 79 79 NW 7 11 30.32 1027 10 16 0.00 0.00
5:53 am 05:53 Cloudy 36 2.2 30 -1.1 79 79 NNW 9 15 30.29 1026 10 16 0.00 0.00
6:04 am 06:04 Cloudy with Light Snow 36 2.2 30 -1.1 79 79 N 8 13 30.33 1027 8 13 0.00 0.00
6:34 am 06:34 Cloudy with Light Snow 35 1.7 31 -0.6 85 85 NNE 10 17 30.34 1027 7 11 0.00 0.00
6:41 am 06:41 Cloudy with Light Snow 34 1.1 30 -1.1 85 85 NNE 9 15 30.34 1027 4 6 0.00 0.00
6:49 am 06:49 Cloudy with Light Snow 34 1 30 -1 87 87 NNE 6 9 30.35 1028 3 5 0.00 0.00
6:53 am 06:53 Cloudy with Light Snow 34 1.1 31 -0.6 89 89 NNE 9 15 30.31 1026 4 6 0.00 0.00
7:39 am 07:39 Cloudy 33 0.6 29 -1.7 85 85 NNE 8 13 30.36 1028 10 16 0.01 0.25
7:49 am 07:49 Cloudy 34 1 30 -1 87 87 NNE 9 15 30.35 1028 10 16 0.01 0.25
7:53 am 07:53 Cloudy 34 1.1 30 -1.1 85 85 NNE 10 17 30.32 1027 10 16 0.01 0.25
8:40 am 08:40 Cloudy 34 1.1 30 -1.1 85 85 N 8 13 30.37 1029 10 16 0.00 0.00
8:45 am 08:45 Cloudy 34 1.1 30 -1.1 85 85 NNE 8 13 30.38 1029 10 16 0.00 0.00
8:53 am 08:53 Cloudy 34 1.1 30 -1.1 85 85 N 7 11 30.35 1028 10 16 0.00 0.00
9:23 am 09:23 Cloudy 35 1.7 30 -1.1 82 82 N 10 17 30.39 1029 10 16 0.00 0.00
9:40 am 09:40 Cloudy 36 2.2 30 -1.1 79 79 N 10 17 30.39 1029 10 16 0.00 0.00
9:53 am 09:53 Cloudy 36 2.2 29 -1.7 76 76 N 14 22 30.37 1028 10 16 0.00 0.00
10:30 am 10:30 Cloudy 37 2.8 28 -2.2 70 70 N 10 17 30.40 1030 10 16 0.00 0.00
10:53 am 10:53 Cloudy 38 3.3 28 -2.2 68 68 N 14 22 30.39 1029 10 16 0.00 0.00
11:53 am 11:53 Cloudy 39 3.9 27 -2.8 62 62 N 15 24 30.40 1029 10 16 0.00 0.00
12:53 pm 12:53 Cloudy 41 5 28 -2.2 60 60 NNE 14 22 30.39 1029 10 16 0.00 0.00
1:53 pm 13:53 Cloudy 40 4.4 27 -2.8 60 60 NE 13 20 30.40 1029 10 16 0.00 0.00
2:53 pm 14:53 Cloudy 42 5.6 28 -2.2 58 58 NE 8 13 30.37 1029 10 16 0.00 0.00
3:53 pm 15:53 Mostly Cloudy 44 6.7 28 -2.2 53 53 NE 10 17 30.36 1028 10 16 0.00 0.00
4:18 pm 16:18 Partly Cloudy 43 6.1 27 -2.8 53 53 undefined N/A 30.37 1028 10 16 0.00 0.00
4:53 pm 16:53 Partly Cloudy 45 7.2 28 -2.2 52 52 E 6 9 30.37 1028 10 16 0.00 0.00
5:53 pm 17:53 Sunny 45 7.2 27 -2.8 49 49 E 6 9 30.37 1028 10 16 0.00 0.00
6:53 pm 18:53 Sunny 44 6.7 27 -2.8 51 51 E 8 13 30.38 1029 10 16 0.00 0.00
7:53 pm 19:53 Clear 37 2.8 27 -2.8 67 67 E 7 11 30.40 1029 10 16 0.00 0.00
8:53 pm 20:53 Clear 33 0.6 25 -3.9 72 72 Calm 30.41 1030 10 16 0.00 0.00
9:53 pm 21:53 Clear 31 -0.6 24 -4.4 76 76 E 3 6 30.42 1030 10 16 0.00 0.00
10:53 pm 22:53 Clear 27 -2.8 22 -5.6 81 81 E 3 6 30.44 1031 10 16 0.00 0.00
11:53 pm 23:53 Clear 26 -3.3 22 -5.6 84 84 Calm 30.45 1031 10 16 0.00 0.00

Powered by AerisWeather